| time (UTC) | temp F | wind direction | speed knots | gust knots | rain 1hr in | rain 24hr in | rain mn in | humidity % | barometer mb |
| 20260903043005 | 67 | 133 | 0.9 | 3.5 | 0.00 | 0.00 | 0.00 | 76 | 1014.7 |
| 20260903041506 | 67 | 136 | 0.0 | 3.5 | 0.00 | 0.00 | 0.00 | 75 | 1014.5 |
| 20260903040003 | 67 | 117 | 0.0 | 2.6 | 0.00 | 0.00 | 0.00 | 75 | 1014.6 |
| 20260903034502 | 67 | 138 | 0.0 | 3.5 | 0.00 | 0.00 | 0.00 | 75 | 1014.5 |
| 20260903033001 | 67 | 123 | 1.7 | 5.2 | 0.00 | 0.00 | 0.00 | 76 | 1014.5 |
| 20260903031559 | 67 | 128 | 1.7 | 3.5 | 0.00 | 0.00 | 0.00 | 76 | 1015.1 |
| 20260903030057 | 67 | 134 | 0.9 | 3.5 | 0.00 | 0.00 | 0.00 | 77 | 1015.5 |
| 20260903024557 | 67 | 121 | 0.9 | 3.5 | 0.00 | 0.00 | 0.00 | 78 | 1015.5 |
| 20260903023055 | 67 | 133 | 0.9 | 2.6 | 0.00 | 0.00 | 0.00 | 78 | 1016.0 |
| 20260903021555 | 67 | 130 | 0.9 | 4.3 | 0.00 | 0.00 | 0.00 | 78 | 1016.2 |
| 20260903020054 | 67 | 148 | 0.0 | 1.7 | 0.00 | 0.00 | 0.00 | 78 | 1016.2 |
| 20260903014554 | 68 | 140 | 0.0 | 1.7 | 0.00 | 0.00 | 0.00 | 77 | 1016.5 |
| 20260903013054 | 68 | 130 | 1.7 | 4.3 | 0.00 | 0.00 | 0.00 | 77 | 1016.7 |
| 20260903011604 | 68 | 141 | 2.6 | 6.1 | 0.00 | 0.00 | 0.00 | 76 | 1016.6 |
| 20260903010052 | 68 | 138 | 0.0 | 5.2 | 0.00 | 0.00 | 0.00 | 76 | 1016.5 |
| 20260903004551 | 68 | 138 | 2.6 | 6.1 | 0.00 | 0.00 | 0.00 | 77 | 1016.4 |
| 20260903003051 | 68 | 117 | 2.6 | 7.0 | 0.00 | 0.00 | 0.00 | 77 | 1016.4 |
| 20260903001551 | 68 | 142 | 0.9 | 6.1 | 0.00 | 0.00 | 0.00 | 78 | 1016.1 |
| 20260903000050 | 68 | 142 | 0.9 | 5.2 | 0.00 | 0.00 | 0.00 | 77 | 1016.2 |
| 20260902234551 | 68 | 137 | 1.7 | 5.2 | 0.00 | 0.00 | 0.00 | 77 | 1016.0 |
| 20260902233055 | 68 | 142 | 1.7 | 5.2 | 0.00 | 0.00 | 0.00 | 77 | 1015.7 |
| 20260902231557 | 68 | 135 | 0.9 | 5.2 | 0.00 | 0.00 | 0.00 | 77 | 1015.9 |
| 20260902230045 | 68 | 133 | 1.7 | 4.3 | 0.00 | 0.00 | 0.00 | 77 | 1016.5 |
| 20260902224552 | 68 | 140 | 1.7 | 5.2 | 0.00 | 0.00 | 0.00 | 77 | 1017.0 |
| 20260902223040 | 68 | 132 | 0.9 | 2.6 | 0.00 | 0.00 | 0.00 | 77 | 1017.8 |
| 20260902221547 | 68 | 127 | 0.0 | 3.5 | 0.00 | 0.00 | 0.00 | 77 | 1018.1 |
| 20260902220037 | 68 | 127 | 0.9 | 5.2 | 0.00 | 0.00 | 0.00 | 78 | 1018.1 |
| 20260902214538 | 68 | 132 | 1.7 | 7.8 | 0.00 | 0.00 | 0.00 | 78 | 1018.1 |
| 20260902213044 | 68 | 123 | 0.9 | 4.3 | 0.00 | 0.00 | 0.00 | 78 | 1018.3 |
| 20260902211546 | 68 | 116 | 0.9 | 4.3 | 0.00 | 0.00 | 0.00 | 78 | 1018.1 |
| 20260902210037 | 69 | 124 | 1.7 | 3.5 | 0.00 | 0.00 | 0.00 | 78 | 1018.2 |
| 20260902204536 | 69 | 123 | 1.7 | 5.2 | 0.00 | 0.00 | 0.00 | 77 | 1017.8 |
| 20260902203035 | 69 | 128 | 0.9 | 7.0 | 0.00 | 0.00 | 0.00 | 77 | 1018.2 |
| 20260902201538 | 69 | 123 | 1.7 | 6.1 | 0.00 | 0.00 | 0.00 | 76 | 1018.4 |
| 20260902200035 | 70 | 119 | 1.7 | 4.3 | 0.00 | 0.00 | 0.00 | 76 | 1018.1 |
| 20260902194534 | 70 | 128 | 2.6 | 5.2 | 0.00 | 0.00 | 0.00 | 76 | 1018.3 |
| 20260902193032 | 69 | 120 | 1.7 | 3.5 | 0.00 | 0.00 | 0.00 | 76 | 1018.5 |
| 20260902191536 | 70 | 119 | 3.5 | 6.1 | 0.00 | 0.00 | 0.00 | 75 | 1018.8 |
| 20260902190032 | 70 | 129 | 1.7 | 4.3 | 0.00 | 0.00 | 0.00 | 73 | 1018.8 |
| 20260902184530 | 70 | 143 | 1.7 | 7.0 | 0.00 | 0.00 | 0.00 | 73 | 1018.6 |
| 20260902183029 | 70 | 144 | 0.9 | 5.2 | 0.00 | 0.00 | 0.00 | 74 | 1018.7 |
| 20260902181529 | 69 | 125 | 0.0 | 6.1 | 0.00 | 0.00 | 0.00 | 74 | 1019.0 |
| 20260902180028 | 70 | 128 | 0.9 | 4.3 | 0.00 | 0.00 | 0.00 | 72 | 1019.0 |
| 20260902174529 | 70 | 130 | 1.7 | 5.2 | 0.00 | 0.00 | 0.00 | 72 | 1018.9 |
| 20260902173027 | 70 | 111 | 1.7 | 6.1 | 0.00 | 0.00 | 0.00 | 71 | 1019.0 |
| 20260902171527 | 70 | 121 | 1.7 | 6.1 | 0.00 | 0.00 | 0.00 | 70 | 1018.8 |
| 20260902170024 | 70 | 123 | 2.6 | 6.1 | 0.00 | 0.00 | 0.00 | 70 | 1018.9 |
| 20260902164526 | 69 | 131 | 2.6 | 4.3 | 0.00 | 0.00 | 0.00 | 69 | 1019.2 |
| 20260902163023 | 69 | 118 | 2.6 | 6.1 | 0.00 | 0.00 | 0.00 | 70 | 1019.3 |
| 20260902161522 | 69 | 134 | 0.0 | 4.3 | 0.00 | 0.00 | 0.00 | 72 | 1019.5 |
| 20260902160018 | 68 | 140 | 0.9 | 3.5 | 0.00 | 0.00 | 0.00 | 74 | 1019.5 |
| 20260902154526 | 68 | 129 | 1.7 | 6.1 | 0.00 | 0.00 | 0.00 | 73 | 1019.6 |
| 20260902153016 | 67 | 134 | 0.9 | 4.3 | 0.00 | 0.00 | 0.00 | 73 | 1019.9 |
| 20260902151515 | 67 | 146 | 0.9 | 2.6 | 0.00 | 0.00 | 0.00 | 73 | 1020.1 |
| 20260902150013 | 67 | 157 | 0.9 | 4.3 | 0.00 | 0.00 | 0.00 | 73 | 1020.0 |
| 20260902144527 | 67 | 119 | 1.7 | 4.3 | 0.00 | 0.00 | 0.00 | 73 | 1020.1 |
| 20260902143016 | 67 | 120 | 0.9 | 2.6 | 0.00 | 0.00 | 0.00 | 73 | 1020.2 |
| 20260902141519 | 67 | 128 | 0.9 | 4.3 | 0.00 | 0.00 | 0.00 | 73 | 1020.3 |
| 20260902140016 | 67 | 128 | 0.0 | 3.5 | 0.00 | 0.00 | 0.00 | 73 | 1019.9 |
| 20260902134513 | 67 | 128 | 0.9 | 1.7 | 0.00 | 0.00 | 0.00 | 75 | 1019.8 |
| 20260902133003 | 66 | 130 | 0.0 | 3.5 | 0.00 | 0.00 | 0.00 | 74 | 1019.7 |
| 20260902131504 | 66 | 130 | 1.7 | 4.3 | 0.00 | 0.00 | 0.00 | 74 | 1019.4 |
| 20260902130001 | 66 | 148 | 0.0 | 2.6 | 0.00 | 0.03 | 0.00 | 76 | 1019.5 |
| 20260902124607 | 66 | 132 | 0.0 | 3.5 | 0.00 | 0.03 | 0.00 | 76 | 1019.3 |
| 20260902123103 | 66 | 159 | 0.9 | 2.6 | 0.00 | 0.03 | 0.00 | 77 | 1019.4 |
| 20260902121608 | 65 | 139 | 0.0 | 2.6 | 0.00 | 0.03 | 0.00 | 77 | 1019.3 |
| 20260902120055 | 64 | 142 | 0.9 | 4.3 | 0.00 | 0.07 | 0.00 | 77 | 1019.3 |
| 20260902114554 | 64 | 138 | 0.0 | 2.6 | 0.00 | 0.07 | 0.00 | 77 | 1019.5 |
| 20260902113104 | 64 | 138 | 0.0 | 1.7 | 0.00 | 0.07 | 0.00 | 77 | 1019.6 |
| 20260902111555 | 64 | 138 | 0.0 | 0.9 | 0.00 | 0.07 | 0.00 | 78 | 1019.8 |
| 20260902110055 | 64 | 138 | 0.0 | 1.7 | 0.00 | 0.13 | 0.00 | 77 | 1019.7 |
| 20260902104556 | 64 | 138 | 0.0 | 2.6 | 0.00 | 0.13 | 0.00 | 77 | 1019.7 |
| 20260902103050 | 64 | 138 | 0.0 | 2.6 | 0.00 | 0.13 | 0.00 | 77 | 1019.6 |
| 20260902101557 | 64 | 150 | 0.0 | 5.2 | 0.00 | 0.13 | 0.00 | 76 | 1019.5 |
| 20260902094545 | 64 | 132 | 0.0 | 1.7 | 0.00 | 0.14 | 0.00 | 76 | 1018.9 |
| 20260902093047 | 64 | 211 | 0.0 | 1.7 | 0.00 | 0.14 | 0.00 | 76 | 1019.1 |
| 20260902091543 | 65 | 148 | 0.0 | 1.7 | 0.00 | 0.14 | 0.00 | 75 | 1019.0 |
| 20260902090043 | 65 | 146 | 0.0 | 2.6 | 0.00 | 0.14 | 0.00 | 75 | 1019.0 |
| 20260902084551 | 65 | 126 | 0.9 | 1.7 | 0.00 | 0.14 | 0.00 | 76 | 1018.8 |
| 20260902083046 | 65 | 126 | 0.0 | 1.7 | 0.00 | 0.14 | 0.00 | 77 | 1018.7 |
| 20260902081548 | 65 | 126 | 0.0 | 2.6 | 0.00 | 0.14 | 0.00 | 76 | 1018.7 |
| 20260902080041 | 65 | 149 | 0.0 | 1.7 | 0.00 | 0.14 | 0.00 | 77 | 1018.9 |
| 20260902074540 | 65 | 129 | 0.0 | 0.9 | 0.00 | 0.14 | 0.00 | 77 | 1018.9 |
| 20260902073049 | 65 | 129 | 0.0 | 0.9 | 0.00 | 0.14 | 0.00 | 78 | 1019.0 |
| 20260902071541 | 65 | 129 | 0.0 | 1.7 | 0.00 | 0.14 | 0.00 | 78 | 1018.9 |
| 20260902070039 | 65 | 129 | 0.0 | 2.6 | 0.00 | 0.14 | 0.00 | 78 | 1018.9 |
| 20260902064547 | 65 | 142 | 0.9 | 2.6 | 0.00 | 0.14 | 0.00 | 79 | 1018.9 |
| 20260902063048 | 65 | 142 | 0.0 | 3.5 | 0.00 | 0.14 | 0.00 | 79 | 1019.1 |
| 20260902061535 | 65 | 142 | 0.0 | 5.2 | 0.00 | 0.14 | 0.00 | 80 | 1018.9 |
| 20260902060034 | 65 | 138 | 0.0 | 0.9 | 0.00 | 0.14 | 0.00 | 83 | 1018.7 |
| 20260902054531 | 65 | 138 | 0.9 | 2.6 | 0.00 | 0.14 | 0.00 | 84 | 1018.5 |
| 20260902053031 | 65 | 137 | 0.0 | 0.9 | 0.00 | 0.14 | 0.00 | 85 | 1018.5 |
| 20260902051530 | 65 | 137 | 0.0 | 0.9 | 0.00 | 0.14 | 0.00 | 86 | 1018.5 |
| 20260902050028 | 65 | 137 | 0.0 | 1.7 | 0.00 | 0.14 | 0.00 | 86 | 1018.5 |
| 20260902044527 | 65 | 137 | 0.0 | 1.7 | 0.00 | 0.14 | 0.00 | 87 | 1018.3 |